Weather History for KHBV - March, 2013

Change the Weather History Date:

Saturday, March 9, 2013

  Actual Average (KLRD) Record (KLRD)
Temperature  
Mean Temperature 78 °F 67 °F  
Max Temperature 88 °F 78 °F 98 °F (1933)
Min Temperature 68 °F 55 °F 29 °F (1931)
Degree Days  
Heating Degree Days 0 3  
Month to date heating degree days 32  
Since 1 July heating degree days 876  
Cooling Degree Days 13 5  
Month to date cooling degree days 36  
Year to date cooling degree days 121  
Growing Degree Days 28 (Base 50)    
Moisture  
Dew Point 60 °F    
Average Humidity 62    
Maximum Humidity 78    
Minimum Humidity 30    
Precipitation  
Precipitation 0.00 in 0.04 in 0.64 in (1994)
Month to date precipitation 0.37  
Year to date precipitation 2.21  
Sea Level Pressure  
Sea Level Pressure 29.79 in    
Wind  
Wind Speed 17 mph (SE)    
Max Wind Speed 24 mph    
Max Gust Speed 32 mph    
Visibility 7 miles    
Events Rain    
T = Trace of Precipitation, MM = Missing Value Source: NWS Daily Summary

Daily Weather History Graph

Daily Weather History Graph

Search for Another Location

Airport or City:

Trip Planner

Search our weather history database for the weather conditions in past years. The results will help you decide how hot, cold, wet, or windy it might be!

Date:

Astronomy

Mar. 09, 2013 Rise Set
Actual Time 6:50 AM CST 6:40 PM CST
Civil Twilight 6:27 AM CST 7:03 PM CST
Nautical Twilight 6:00 AM CST 7:30 PM CST
Astronomical Twilight 5:33 AM CST 7:57 PM CST
Moon 5:06 AM CST (3/9) 4:50 PM CST (3/9)
Length of Visible Light 12h 36m
Length of Day
11h 49m
Waning Crescent, 5% of the Moon is Illuminated
Mar 9
Waning Crescent
Mar 11
New
Mar 19
First Quarter
Mar 27
Full
Apr 2
Last Quarter

Hourly Weather History & Observations

Time (CST) Temp. Heat Index Dew Point Humidity Pressure Visibility Wind Dir Wind Speed Gust Speed Precip Events Conditions
12:15 AM 68.5 °F - 61.0 °F 77% 29.98 in 7.0 mi SE 16.1 mph 21.9 mph N/A Rain Rain
12:35 AM 68.5 °F - 61.2 °F 77% 29.96 in 7.0 mi SE 16.1 mph 25.3 mph N/A Rain Rain
12:55 AM 68.5 °F - 61.3 °F 78% 29.96 in 7.0 mi SE 15.0 mph 21.9 mph N/A Rain Rain
1:15 AM 68.7 °F - 61.5 °F 78% 29.95 in 7.0 mi SE 16.1 mph 23.0 mph N/A Rain Rain
1:35 AM 68.9 °F - 61.5 °F 77% 29.94 in 5.0 mi SE 16.1 mph 24.2 mph N/A Rain Rain
1:55 AM 69.1 °F - 61.3 °F 76% 29.93 in 7.0 mi SE 19.6 mph 23.0 mph N/A Rain Rain
2:15 AM 69.1 °F - 61.3 °F 76% 29.92 in 7.0 mi SE 15.0 mph 23.0 mph N/A Rain Rain
2:35 AM 69.1 °F - 61.3 °F 76% 29.93 in 5.0 mi SSE 12.7 mph 18.4 mph N/A Rain Rain
2:55 AM 69.1 °F - 61.3 °F 76% 29.91 in 7.0 mi SSE 13.8 mph 19.6 mph N/A Rain Rain
3:15 AM 69.1 °F - 61.2 °F 76% 29.91 in 7.0 mi SSE 17.3 mph 20.7 mph N/A Rain Rain
3:35 AM 69.3 °F - 61.2 °F 75% 29.89 in 7.0 mi SSE 17.3 mph 24.2 mph N/A Rain Rain
3:55 AM 69.3 °F - 61.2 °F 75% 29.89 in 7.0 mi SSE 16.1 mph 21.9 mph N/A Rain Rain
4:15 AM 69.3 °F - 61.2 °F 75% 29.88 in 7.0 mi SSE 13.8 mph 23.0 mph N/A Rain Rain
4:35 AM 69.1 °F - 61.0 °F 75% 29.87 in 7.0 mi SSE 16.1 mph 21.9 mph N/A Rain Rain
4:55 AM 69.1 °F - 61.0 °F 75% 29.86 in 7.0 mi SSE 16.1 mph - N/A Rain Rain
5:15 AM 69.1 °F - 61.2 °F 76% 29.86 in 7.0 mi SSE 16.1 mph 21.9 mph N/A Rain Rain
5:35 AM 68.7 °F - 61.0 °F 76% 29.87 in 5.0 mi SSE 12.7 mph - N/A Rain Rain
5:55 AM 68.5 °F - 61.2 °F 77% 29.87 in 7.0 mi SE 16.1 mph 21.9 mph N/A Rain Rain
6:15 AM 68.4 °F - 61.2 °F 78% 29.88 in 7.0 mi SSE 12.7 mph - N/A Rain Rain
6:35 AM 68.4 °F - 61.2 °F 78% 29.88 in 5.0 mi SSE 13.8 mph - N/A Rain Rain
6:55 AM 68.7 °F - 61.3 °F 77% 29.88 in 5.0 mi SSE 16.1 mph 23.0 mph N/A Rain Rain
7:15 AM 68.9 °F - 61.5 °F 77% 29.88 in 7.0 mi SSE 12.7 mph 18.4 mph N/A Rain Rain
7:35 AM 69.3 °F - 61.7 °F 77% 29.88 in 7.0 mi SSE 17.3 mph 24.2 mph N/A Rain Rain
7:55 AM 69.8 °F - 61.7 °F 75% 29.89 in 5.0 mi SSE 16.1 mph 23.0 mph N/A Rain Rain
8:15 AM 70.5 °F - 61.7 °F 74% 29.89 in 5.0 mi SSE 18.4 mph 24.2 mph N/A Rain Rain
8:35 AM 71.4 °F - 61.9 °F 72% 29.89 in 5.0 mi SSE 20.7 mph 25.3 mph N/A Rain Rain
8:55 AM 72.3 °F - 61.9 °F 70% 29.89 in 5.0 mi SSE 19.6 mph 26.5 mph N/A Rain Rain
9:15 AM 72.9 °F - 61.9 °F 68% 29.89 in 7.0 mi SSE 16.1 mph 24.2 mph N/A Rain Rain
9:35 AM 73.4 °F - 61.3 °F 66% 29.89 in 4.0 mi SSE 21.9 mph 28.8 mph N/A   Haze
9:55 AM 73.9 °F - 61.2 °F 64% 29.88 in 4.0 mi SSE 24.2 mph 28.8 mph N/A   Haze
10:15 AM 74.8 °F - 61.0 °F 62% 29.87 in 4.0 mi SSE 18.4 mph 28.8 mph N/A   Haze
10:35 AM 75.6 °F - 60.8 °F 60% 29.87 in 4.0 mi SSE 16.1 mph 24.2 mph N/A   Haze
10:55 AM 76.8 °F - 60.6 °F 57% 29.85 in 4.0 mi SSE 21.9 mph 28.8 mph N/A   Haze
11:15 AM 77.5 °F - 60.3 °F 55% 29.85 in 3.0 mi SE 19.6 mph 28.8 mph N/A   Haze
11:35 AM 78.8 °F - 59.9 °F 52% 29.83 in 4.0 mi SE 20.7 mph 28.8 mph N/A   Haze
11:55 AM 79.7 °F - 59.7 °F 50% 29.83 in 7.0 mi SSE 17.3 mph 28.8 mph N/A   Scattered Clouds
12:15 PM 80.1 °F 80.8 °F 59.5 °F 49% 29.81 in 10.0 mi SSE 20.7 mph 28.8 mph N/A   Scattered Clouds
12:35 PM 81.0 °F 81.3 °F 59.2 °F 47% 29.80 in 7.0 mi SE 18.4 mph 27.6 mph N/A   Scattered Clouds
12:55 PM 82.4 °F 82.3 °F 58.6 °F 44% 29.78 in 10.0 mi SSE 19.6 mph 29.9 mph N/A   Scattered Clouds
1:15 PM 83.3 °F 82.9 °F 58.1 °F 42% 29.76 in 10.0 mi SE 21.9 mph 28.8 mph N/A   Clear
1:35 PM 84.0 °F 83.3 °F 57.6 °F 40% 29.75 in 10.0 mi SE 18.4 mph 31.1 mph N/A   Clear
1:55 PM 84.9 °F 83.9 °F 57.0 °F 38% 29.73 in 7.0 mi SSE 20.7 mph 31.1 mph N/A   Clear
2:15 PM 85.8 °F 84.7 °F 56.5 °F 37% 29.72 in 5.0 mi SSE 18.4 mph 27.6 mph N/A   Haze
2:35 PM 86.9 °F 85.5 °F 56.3 °F 35% 29.70 in 7.0 mi SE 21.9 mph 28.8 mph N/A   Scattered Clouds
3:15 PM 87.4 °F 85.7 °F 55.2 °F 33% 29.69 in 7.0 mi ESE 19.6 mph 27.6 mph N/A   Clear
3:35 PM 88.0 °F 85.9 °F 54.1 °F 31% 29.68 in 10.0 mi SE 16.1 mph 25.3 mph N/A   Clear
3:55 PM 88.2 °F 86.1 °F 53.6 °F 31% 29.67 in 10.0 mi ESE 23.0 mph 27.6 mph N/A   Clear
4:15 PM 88.2 °F 85.9 °F 53.4 °F 30% 29.64 in 7.0 mi SE 20.7 mph 26.5 mph N/A   Clear
4:35 PM 86.9 °F 85.5 °F 56.3 °F 35% 29.65 in 5.0 mi SE 23.0 mph 32.2 mph N/A   Haze
4:55 PM 85.1 °F 84.4 °F 57.9 °F 40% 29.65 in 5.0 mi SE 20.7 mph 32.2 mph N/A   Haze
5:15 PM 84.0 °F 83.5 °F 58.3 °F 41% 29.65 in 7.0 mi SE 23.0 mph 31.1 mph N/A   Clear
5:35 PM 82.8 °F 82.7 °F 58.8 °F 44% 29.65 in 7.0 mi SE 19.6 mph 28.8 mph N/A   Clear
5:55 PM 81.1 °F 81.5 °F 59.0 °F 47% 29.65 in 7.0 mi SE 23.0 mph 26.5 mph N/A   Clear
6:15 PM 79.9 °F - 59.2 °F 49% 29.65 in 7.0 mi SE 21.9 mph 28.8 mph N/A   Clear
6:35 PM 78.6 °F - 59.7 °F 52% 29.66 in 7.0 mi SE 21.9 mph 28.8 mph N/A   Clear
6:55 PM 77.4 °F - 59.5 °F 54% 29.66 in 10.0 mi SE 18.4 mph 24.2 mph N/A   Clear
7:15 PM 76.5 °F - 59.5 °F 56% 29.66 in 10.0 mi SE 19.6 mph 25.3 mph N/A   Clear
7:35 PM 75.2 °F - 59.9 °F 59% 29.67 in 10.0 mi SE 15.0 mph 24.2 mph N/A   Clear
7:55 PM 74.1 °F - 60.3 °F 62% 29.68 in 10.0 mi SE 16.1 mph 19.6 mph N/A   Clear
8:15 PM 73.4 °F - 60.6 °F 64% 29.67 in 10.0 mi SE 16.1 mph 23.0 mph N/A   Clear
8:35 PM 72.3 °F - 60.8 °F 67% 29.68 in 10.0 mi SE 13.8 mph 20.7 mph N/A   Clear
8:55 PM 71.6 °F - 60.8 °F 69% 29.68 in 10.0 mi SE 15.0 mph 24.2 mph N/A   Clear
9:15 PM 71.1 °F - 60.6 °F 69% 29.69 in 10.0 mi SE 18.4 mph 24.2 mph N/A   Clear
9:35 PM 70.9 °F - 60.8 °F 70% 29.69 in 10.0 mi SE 24.2 mph 28.8 mph N/A   Mostly Cloudy
9:55 PM 70.9 °F - 61.0 °F 71% 29.68 in 10.0 mi SE 20.7 mph 27.6 mph N/A   Overcast
10:15 PM 70.9 °F - 61.2 °F 71% 29.68 in 10.0 mi SE 20.7 mph 28.8 mph N/A   Overcast
10:35 PM 70.7 °F - 61.2 °F 72% 29.68 in 10.0 mi SSE 21.9 mph 31.1 mph N/A   Overcast
10:55 PM 70.7 °F - 61.0 °F 71% 29.68 in 10.0 mi SSE 24.2 mph 31.1 mph N/A   Overcast
11:15 PM 70.2 °F - 61.0 °F 73% 29.67 in 10.0 mi SSE 18.4 mph 28.8 mph N/A   Overcast
11:35 PM 69.6 °F - 60.8 °F 73% 29.66 in 10.0 mi SSE 18.4 mph - N/A   Scattered Clouds
11:55 PM 68.9 °F - 60.8 °F 75% 29.65 in 10.0 mi SSE 19.6 mph 26.5 mph N/A   Scattered Clouds